Hourly Data Report for November 06, 2019

All times are specified in Local Standard Time (LST). Add 1 hour to adjust for Daylight Saving Time where and when it is observed.

PINAWA
MANITOBA
Current Station Operator: ECCC - MSC

50°10'38.020" N
96°03'53.000" W
268.00 m
503B1ER
71448
WEA

Download Data

Hourly Data (November 2019)
Hourly Data Report for November 6, 2019
TIME Temp Definition
°C
Dew Point Definition
°C
Rel Hum Definition
%
Wind Dir Definition
10's deg

Wind Spd Definition
km/h
Visibility Definition
km
Stn Press Definition
kPa
Hmdx Definition


Wind Chill Definition


Weather Definition


00:00 -9.2 LegendMM LegendMM 26 7   99.09   -13 LegendNANA
01:00 -9.1 LegendMM LegendMM 28 11   99.13   -15 LegendNANA
02:00 -8.4 LegendMM LegendMM 28 11   99.16   -14 LegendNANA
03:00 -8.4 LegendMM LegendMM 30 15   99.22   -15 LegendNANA
04:00 -9.4 LegendMM LegendMM 28 14   99.27   -16 LegendNANA
05:00 -8.9 LegendMM LegendMM 30 18   99.33   -16 LegendNANA
06:00 -8.6 LegendMM LegendMM 31 17   99.43   -15 LegendNANA
07:00 -8.8 LegendMM LegendMM 31 16   99.50   -16 LegendNANA
08:00 -9.0 LegendMM LegendMM 29 16   99.59   -16 LegendNANA
09:00 -8.7 LegendMM LegendMM 31 17   99.71   -16 LegendNANA
10:00 -8.3 LegendMM LegendMM 31 18   99.78   -15 LegendNANA
11:00 -8.4 LegendMM LegendMM 32 16   99.85   -15 LegendNANA
12:00 -7.8 LegendMM LegendMM 30 17   99.87   -14 LegendNANA
13:00 -7.3 LegendMM LegendMM 31 15   99.89   -13 LegendNANA
14:00 -7.4 LegendMM LegendMM 31 19   99.92   -14 LegendNANA
15:00 -8.2 LegendMM LegendMM 32 20   99.95   -16 LegendNANA
16:00 -8.2 LegendMM LegendMM 33 14   99.99   -14 LegendNANA
17:00 -8.7 LegendMM LegendMM 31 14   100.03   -15 LegendNANA
18:00 -9.4 LegendMM LegendMM 29 12   100.06   -15 LegendNANA
19:00 -9.5 LegendMM LegendMM 28 11   100.07   -15 LegendNANA
20:00 -9.5 LegendMM LegendMM 29 10   100.07   -15 LegendNANA
21:00 -9.5 LegendMM LegendMM 28 7   100.07   -13 LegendNANA
22:00 -9.8 LegendMM LegendMM 27 10   100.07   -15 LegendNANA
23:00 -10.2 LegendMM LegendMM 28 8   100.07   -15 LegendNANA

Notes on Data Quality.

Legend

  • E = Estimated
  • M = Missing
  • NA = Not Available
Date modified: